GW2016 Weather Reports


time (UTC)temp
F
wind
direction
speed
knots
gust
knots
rain 1hr
in
rain 24hr
in
rain mn
in
humidity
%
barometer
mb
20260510091604 57 36 13.9 37.4 0.00 0.00 0.00 73 1014.6
20260510091104 58 39 10.4 28.7 0.00 0.00 0.00 72 1014.6
20260510090604 58 33 15.6 33.0 0.00 0.00 0.00 72 1014.8
20260510090104 58 25 11.3 40.0 0.00 0.00 0.00 71 1014.8
20260510085104 57 68 10.4 45.2 0.00 0.00 0.00 70 1014.8
20260510084604 57 32 10.4 32.2 0.00 0.00 0.00 72 1014.9
20260510084104 56 45 10.4 33.0 0.00 0.00 0.00 73 1014.9
20260510083104 57 34 9.6 35.6 0.00 0.00 0.00 72 1014.9
20260510082604 56 44 11.3 26.1 0.00 0.00 0.00 73 1015.0
20260510082104 56 59 7.0 27.8 0.00 0.00 0.00 74 1014.7
20260510081604 55 61 11.3 33.9 0.00 0.00 0.00 75 1014.8
20260510081105 55 55 12.2 30.4 0.00 0.00 0.00 77 1014.9
20260510080604 55 28 13.0 26.1 0.00 0.00 0.00 77 1014.8
20260510080104 54 37 11.3 37.4 0.00 0.00 0.00 77 1014.7
20260510075604 54 42 11.3 32.2 0.00 0.00 0.00 78 1014.7
20260510075104 54 28 13.9 38.2 0.00 0.00 0.00 79 1014.9
20260510074104 54 29 14.8 38.2 0.00 0.00 0.00 79 1014.8
20260510073604 54 28 13.9 34.8 0.00 0.00 0.00 81 1014.8
20260510073104 54 36 10.4 33.0 0.00 0.00 0.00 81 1014.8
20260510072604 54 41 9.6 22.6 0.00 0.00 0.00 81 1014.9
20260510072104 53 65 7.0 31.3 0.00 0.00 0.00 81 1014.7
20260510071104 53 34 11.3 27.8 0.00 0.00 0.00 82 1014.9
20260510070604 53 31 12.2 27.8 0.00 0.00 0.00 82 1014.7
20260510070104 53 50 8.7 26.9 0.00 0.00 0.00 83 1014.9
20260510065604 53 44 12.2 40.0 0.00 0.00 0.00 83 1014.9
20260510065104 53 54 10.4 38.2 0.00 0.00 0.00 83 1015.0
20260510064604 53 35 12.2 39.1 0.00 0.00 0.00 83 1014.9
20260510064104 53 49 12.2 31.3 0.00 0.00 0.00 83 1014.9
20260510063604 53 56 9.6 27.8 0.00 0.00 0.00 83 1014.9
20260510063104 53 32 10.4 35.6 0.00 0.00 0.00 83 1014.9
20260510062604 53 24 10.4 33.0 0.00 0.00 0.00 83 1015.0
20260510062104 54 47 10.4 27.8 0.00 0.00 0.00 84 1015.0
20260510061605 53 27 10.4 26.9 0.00 0.00 0.00 85 1015.0
20260510061104 53 47 7.8 35.6 0.00 0.00 0.00 85 1015.1
20260510060604 53 36 11.3 30.4 0.00 0.00 0.00 86 1015.0
20260510060104 53 52 10.4 32.2 0.00 0.00 0.00 86 1014.8
20260510055604 53 35 10.4 28.7 0.00 0.00 0.00 87 1014.9
20260510054603 52 43 11.3 31.3 0.00 0.00 0.00 88 1015.2
20260510054104 52 50 11.3 27.8 0.00 0.00 0.00 88 1015.1
20260510053604 52 29 10.4 35.6 0.00 0.00 0.00 89 1015.1
20260510053104 52 51 11.3 32.2 0.00 0.00 0.00 89 1015.2
20260510052604 51 46 10.4 33.0 0.00 0.00 0.00 89 1015.2
20260510050604 51 26 8.7 20.9 0.00 0.00 0.00 90 1015.2
20260510050104 51 39 10.4 27.8 0.00 0.00 0.00 91 1014.9
20260510045604 51 39 13.9 31.3 0.00 0.00 0.00 91 1015.0
20260510045104 51 25 15.6 35.6 0.00 0.00 0.00 91 1014.8
20260510044604 51 42 11.3 33.0 0.00 0.00 0.00 91 1014.6
20260510044104 51 39 13.9 28.7 0.00 0.00 0.00 90 1014.7
20260510043104 51 54 8.7 28.7 0.00 0.00 0.00 89 1014.8
20260510042604 52 51 11.3 27.8 0.00 0.00 0.00 89 1014.9
20260510041104 52 29 9.6 26.9 0.00 0.00 0.00 88 1014.9
20260510040604 52 44 9.6 26.9 0.00 0.00 0.00 88 1014.9
20260510040104 52 36 9.6 25.2 0.00 0.00 0.00 87 1014.8
20260510035604 52 20 10.4 22.6 0.00 0.00 0.00 87 1015.0
20260510035104 52 39 8.7 26.1 0.00 0.00 0.00 87 1014.7
20260510034604 52 53 8.7 26.1 0.00 0.00 0.00 86 1014.8
20260510033603 52 39 9.6 22.6 0.00 0.00 0.00 86 1015.0
20260510033104 52 30 7.8 20.0 0.00 0.00 0.00 86 1015.0
20260510032104 52 40 7.8 26.1 0.00 0.00 0.00 87 1014.8
20260510031603 52 46 6.1 25.2 0.00 0.00 0.00 87 1014.7
20260510025604 52 32 7.8 24.3 0.00 0.00 0.00 87 1014.8
20260510025104 52 29 7.8 28.7 0.00 0.00 0.00 87 1014.8
20260510024604 52 33 9.6 26.9 0.00 0.00 0.00 87 1015.0
20260510024104 52 33 7.8 27.8 0.00 0.00 0.00 87 1015.0
20260510022104 52 48 8.7 22.6 0.00 0.00 0.00 87 1014.8
20260510021103 52 30 8.7 25.2 0.00 0.00 0.00 88 1015.1
20260510020604 52 36 7.8 21.7 0.00 0.00 0.00 88 1015.0
20260510020104 52 43 7.8 22.6 0.00 0.00 0.00 88 1015.3
20260510015604 52 48 8.7 25.2 0.00 0.00 0.00 88 1015.0
20260510015104 52 36 8.7 22.6 0.00 0.00 0.00 87 1015.0
20260510014604 52 20 7.8 26.9 0.00 0.00 0.00 87 1015.1
20260510014104 53 48 10.4 32.2 0.00 0.00 0.00 87 1015.2
20260510013604 53 50 10.4 24.3 0.00 0.00 0.00 87 1015.3
20260510013103 53 56 9.6 27.8 0.00 0.00 0.00 87 1015.3
20260510012604 52 48 9.6 46.1 0.00 0.00 0.00 87 1015.3
20260510012104 52 53 9.6 27.8 0.00 0.00 0.00 87 1015.4
20260510011104 52 45 8.7 26.1 0.00 0.00 0.00 86 1015.5
20260510010104 53 50 10.4 31.3 0.00 0.00 0.00 85 1015.7
20260510005604 52 49 8.7 27.8 0.00 0.00 0.00 85 1015.6
20260510004103 52 50 8.7 22.6 0.00 0.00 0.00 86 1015.5
20260510003604 52 57 7.0 26.1 0.00 0.00 0.00 86 1015.3
20260510003103 52 59 6.1 26.1 0.00 0.00 0.00 86 1015.5
20260510002604 53 34 8.7 26.1 0.00 0.00 0.00 86 1015.4
20260510002103 52 46 10.4 25.2 0.00 0.00 0.00 86 1015.6
20260510001603 52 43 8.7 19.1 0.00 0.00 0.00 86 1015.6
20260510001104 52 48 6.1 18.2 0.00 0.00 0.00 86 1015.6
20260510000604 53 46 6.1 30.4 0.00 0.00 0.00 85 1015.6
20260510000104 53 54 7.8 20.0 0.00 0.00 0.00 85 1015.6
20260509235104 53 63 7.8 24.3 0.00 0.00 0.00 85 1015.7
20260509234104 53 41 9.6 19.1 0.00 0.00 0.00 85 1015.5
20260509233604 53 46 7.8 22.6 0.00 0.00 0.00 84 1015.7
20260509233104 53 54 10.4 30.4 0.00 0.00 0.00 84 1015.6
20260509232604 53 42 9.6 33.9 0.00 0.00 0.00 84 1015.7
20260509232104 53 54 7.8 21.7 0.00 0.00 0.00 84 1016.0
20260509231604 53 43 7.0 20.0 0.00 0.00 0.00 83 1016.0
20260509231105 53 36 10.4 22.6 0.00 0.00 0.00 83 1015.9
20260509230604 53 54 8.7 21.7 0.00 0.00 0.00 83 1016.0
20260509230103 53 51 10.4 21.7 0.00 0.00 0.00 83 1016.1
20260509225603 53 58 7.8 25.2 0.00 0.00 0.00 83 1016.0
20260509225104 53 60 7.0 20.0 0.00 0.00 0.00 83 1016.1
20260509224604 53 48 7.0 13.0 0.00 0.00 0.00 83 1016.0
20260509224104 53 61 7.0 19.1 0.00 0.00 0.00 83 1015.9
20260509223604 53 52 7.8 22.6 0.00 0.00 0.00 84 1016.0
20260509223104 53 34 8.7 25.2 0.00 0.00 0.00 84 1015.9
20260509222611 53 51 7.8 27.8 0.00 0.00 0.00 84 1015.9
20260509222104 53 45 8.7 26.1 0.00 0.00 0.00 84 1015.9
20260509221604 53 57 7.8 27.8 0.00 0.00 0.00 84 1015.9
20260509221103 53 39 8.7 26.9 0.00 0.00 0.00 84 1016.0
20260509220603 53 50 7.8 20.0 0.00 0.00 0.00 84 1016.0
20260509215604 54 60 6.1 20.0 0.00 0.00 0.00 83 1016.1
20260509214604 54 37 7.8 21.7 0.00 0.00 0.00 82 1016.1
20260509214104 54 52 7.8 15.6 0.00 0.00 0.00 82 1016.0
20260509213604 54 48 6.1 19.1 0.00 0.00 0.00 82 1016.0
20260509213104 54 54 8.7 20.0 0.00 0.00 0.00 81 1016.0
20260509212604 54 40 6.1 18.2 0.00 0.00 0.00 81 1015.8
20260509211604 54 39 6.1 20.0 0.00 0.00 0.00 79 1015.9
20260509211104 54 50 7.8 19.1 0.00 0.00 0.00 79 1016.0
20260509210604 54 58 7.0 24.3 0.00 0.00 0.00 78 1015.8
20260509205604 54 43 7.0 18.2 0.00 0.00 0.00 75 1015.8
20260509205104 54 69 7.8 21.7 0.00 0.00 0.00 74 1015.9
20260509204604 54 46 7.8 20.0 0.00 0.00 0.00 73 1015.9
20260509204104 54 48 9.6 21.7 0.00 0.00 0.00 71 1016.0
20260509203604 54 56 4.3 13.9 0.00 0.00 0.00 69 1015.7
20260509203104 55 44 6.1 19.1 0.00 0.00 0.00 67 1015.9
20260509202103 55 65 6.1 13.0 0.00 0.00 0.00 64 1015.9
20260509201604 55 66 6.1 15.6 0.00 0.00 0.00 62 1015.6
20260509201104 55 63 5.2 17.4 0.00 0.00 0.00 61 1015.7
20260509200604 56 58 6.1 12.2 0.00 0.00 0.00 60 1015.6
20260509200104 56 56 6.1 12.2 0.00 0.00 0.00 60 1015.5
20260509195603 56 62 5.2 13.9 0.00 0.00 0.00 59 1015.4
20260509195104 56 59 5.2 17.4 0.00 0.00 0.00 59 1015.5
20260509194604 56 68 6.1 22.6 0.00 0.00 0.00 59 1015.4
20260509194103 57 60 7.0 17.4 0.00 0.00 0.00 58 1015.2
20260509193604 57 82 4.3 11.3 0.00 0.00 0.00 58 1015.3
20260509193104 57 66 4.3 15.6 0.00 0.00 0.00 57 1015.4
20260509192604 57 59 6.1 13.0 0.00 0.00 0.00 57 1015.3
20260509192103 58 69 4.3 19.1 0.00 0.00 0.00 56 1015.3
20260509191604 58 52 7.8 20.9 0.00 0.00 0.00 56 1015.1
20260509191103 58 53 7.8 14.8 0.00 0.00 0.00 56 1015.2
20260509190603 58 46 6.1 19.1 0.00 0.00 0.00 56 1015.3
20260509185604 59 65 6.1 20.0 0.00 0.00 0.00 56 1015.2
20260509184604 59 58 6.1 19.1 0.00 0.00 0.00 56 1015.2
20260509184103 59 63 6.1 17.4 0.00 0.00 0.00 56 1015.0
20260509182603 59 60 5.2 19.1 0.00 0.00 0.00 54 1015.3
20260509182104 60 56 7.8 19.1 0.00 0.00 0.00 54 1015.1
20260509181604 60 38 7.8 20.0 0.00 0.00 0.00 53 1015.1
20260509181104 60 71 10.4 22.6 0.00 0.00 0.00 53 1015.1
20260509180604 60 50 8.7 33.0 0.00 0.00 0.00 52 1015.1
20260509180104 60 44 8.7 26.1 0.00 0.00 0.00 50 1015.2
20260509175603 61 47 11.3 31.3 0.00 0.00 0.00 49 1015.4
20260509175103 61 37 10.4 25.2 0.00 0.00 0.00 49 1015.1
20260509174603 61 45 7.0 31.3 0.00 0.00 0.00 48 1014.8
20260509173604 61 36 11.3 31.3 0.00 0.00 0.00 46 1015.0
20260509173103 62 49 7.8 24.3 0.00 0.00 0.00 47 1014.9
20260509172604 62 25 10.4 26.1 0.00 0.00 0.00 47 1014.8
20260509172103 62 51 12.2 32.2 0.00 0.00 0.00 49 1014.8
20260509171604 62 45 11.3 32.2 0.00 0.00 0.00 48 1014.8
20260509171103 62 39 8.7 28.7 0.00 0.00 0.00 49 1015.0
20260509170603 62 32 8.7 30.4 0.00 0.00 0.00 50 1014.9
20260509170106 63 33 11.3 40.0 0.00 0.00 0.00 50 1015.0
20260509165606 63 46 7.8 21.7 0.00 0.00 0.00 50 1015.0
20260509165105 63 43 7.8 24.3 0.00 0.00 0.00 49 1015.0
20260509164106 63 53 12.2 30.4 0.00 0.00 0.00 51 1015.1
20260509163606 63 48 11.3 28.7 0.00 0.00 0.00 52 1015.2
20260509163106 63 46 8.7 26.9 0.00 0.00 0.00 52 1015.1
20260509162606 64 48 8.7 26.9 0.00 0.00 0.00 51 1015.0
20260509162106 64 44 10.4 33.0 0.00 0.00 0.00 52 1014.9
20260509161606 63 48 10.4 28.7 0.00 0.00 0.00 51 1015.1
20260509161105 63 39 12.2 33.0 0.00 0.00 0.00 51 1015.0
20260509160606 64 36 11.3 25.2 0.00 0.00 0.00 51 1015.0
20260509160106 64 37 8.7 21.7 0.00 0.00 0.00 50 1015.1
20260509155605 64 55 8.7 30.4 0.00 0.00 0.00 50 1015.1
20260509155105 65 25 8.7 25.2 0.00 0.00 0.00 50 1015.2
20260509154105 65 35 9.6 21.7 0.00 0.00 0.00 50 1015.4
20260509153606 65 35 6.1 28.7 0.00 0.00 0.00 51 1015.4
20260509153106 65 21 10.4 28.7 0.00 0.00 0.00 50 1015.5
20260509152605 65 35 9.6 30.4 0.00 0.00 0.00 51 1015.6
20260509152106 65 55 7.8 27.8 0.00 0.00 0.00 50 1015.4
20260509151605 64 41 11.3 37.4 0.00 0.00 0.00 48 1015.5
20260509151106 65 49 10.4 24.3 0.00 0.00 0.00 47 1015.6
20260509150606 65 30 8.7 27.8 0.00 0.00 0.00 47 1015.5
20260509150105 65 28 7.0 28.7 0.00 0.00 0.00 48 1015.6
20260509145605 65 42 11.3 26.9 0.00 0.00 0.00 46 1015.4
20260509144605 65 42 8.7 24.3 0.00 0.00 0.00 47 1015.5
20260509144106 65 18 13.0 30.4 0.00 0.00 0.00 45 1015.4
20260509143605 65 26 8.7 20.9 0.00 0.00 0.00 47 1015.5
20260509143105 66 42 8.7 25.2 0.00 0.00 0.00 47 1015.6
20260509142606 65 65 8.7 21.7 0.00 0.00 0.00 48 1015.3
20260509142106 65 56 7.8 30.4 0.00 0.00 0.00 48 1015.5
20260509141606 65 41 8.7 26.1 0.00 0.00 0.00 48 1015.3
20260509141106 65 49 8.7 26.9 0.00 0.00 0.00 47 1015.3
20260509140605 66 39 12.2 25.2 0.00 0.00 0.00 47 1015.5
20260509140105 66 53 8.7 20.9 0.00 0.00 0.00 46 1015.5
20260509134106 66 30 8.7 32.2 0.00 0.00 0.00 48 1015.5
20260509133105 66 63 6.1 21.7 0.00 0.00 0.00 48 1015.5
20260509132606 66 72 10.4 25.2 0.00 0.00 0.00 48 1015.3
20260509132106 66 69 10.4 26.9 0.00 0.00 0.00 49 1015.6
20260509131105 66 53 9.6 24.3 0.00 0.00 0.00 47 1015.6
20260509130606 67 69 7.0 19.1 0.00 0.00 0.00 47 1015.6
20260509130106 66 55 7.0 31.3 0.00 0.00 0.00 47 1015.7
20260509125605 66 47 10.4 26.1 0.00 0.00 0.00 47 1015.8
20260509125105 67 51 8.7 26.1 0.00 0.00 0.00 47 1015.8
20260509124605 67 25 8.7 25.2 0.00 0.00 0.00 47 1015.8
20260509124106 66 28 9.6 26.1 0.00 0.00 0.00 48 1016.0
20260509123606 67 61 7.0 25.2 0.00 0.00 0.00 47 1015.9
20260509123105 67 42 7.8 21.7 0.00 0.00 0.00 47 1016.1
20260509122605 66 68 10.4 22.6 0.00 0.00 0.00 48 1016.1
20260509122106 65 56 8.7 20.0 0.00 0.00 0.00 50 1015.9
20260509121106 65 81 6.1 20.0 0.00 0.00 0.00 49 1016.0
20260509120605 66 62 9.6 27.8 0.00 0.00 0.00 49 1015.9
20260509120105 66 62 7.8 21.7 0.00 0.00 0.00 49 1015.9
20260509115606 66 43 5.2 26.1 0.00 0.00 0.00 48 1016.0
20260509115106 66 47 8.7 25.2 0.00 0.00 0.00 48 1016.1
20260509114606 67 42 7.0 21.7 0.00 0.00 0.00 48 1016.0
20260509114105 67 40 10.4 21.7 0.00 0.00 0.00 48 1016.2
20260509113605 66 47 8.7 24.3 0.00 0.00 0.00 48 1016.2
20260509113105 67 51 9.6 19.1 0.00 0.00 0.00 47 1016.3
20260509112606 67 37 11.3 22.6 0.00 0.00 0.00 48 1016.4
20260509112106 67 42 10.4 21.7 0.00 0.00 0.00 47 1016.4
20260509111606 66 40 7.0 21.7 0.00 0.00 0.00 48 1016.2
20260509111106 67 61 5.2 20.0 0.00 0.00 0.00 47 1016.2
20260509110605 67 31 7.8 20.0 0.00 0.00 0.00 48 1016.4
20260509110116 66 50 4.3 18.2 0.00 0.00 0.00 50 1016.3
20260509105606 67 55 7.0 21.7 0.00 0.00 0.00 48 1016.4
20260509104606 66 66 5.2 21.7 0.00 0.00 0.00 50 1016.7
20260509104108 66 59 12.2 31.3 0.00 0.00 0.00 50 1016.8
20260509103606 66 52 8.7 22.6 0.00 0.00 0.00 51 1016.6
20260509103106 66 50 8.7 20.9 0.00 0.00 0.00 51 1016.8
20260509102606 66 55 7.0 20.9 0.00 0.00 0.00 52 1016.7
20260509102106 65 44 10.4 21.7 0.00 0.00 0.00 53 1016.7
20260509101106 65 68 7.0 27.8 0.00 0.00 0.00 53 1016.6
20260509100605 65 77 8.7 20.9 0.00 0.00 0.00 55 1016.7
20260509100105 65 56 6.1 20.9 0.00 0.00 0.00 56 1016.8
20260509095606 65 65 7.8 20.0 0.00 0.00 0.00 56 1016.6
20260509094605 63 42 5.2 15.6 0.00 0.00 0.00 65 1016.8
20260509094106 63 95 5.2 14.8 0.00 0.00 0.00 62 1016.8
20260509093605 63 86 6.1 17.4 0.00 0.00 0.00 68 1016.7
20260509093105 64 73 5.2 13.9 0.00 0.00 0.00 66 1017.0
20260509092106 64 76 6.1 19.1 0.00 0.00 0.00 59 1016.8